Change the Weather History Date:

Sunday, March 18, 2012

  Actual Average Record
Temperature  
Mean Temperature 70 °F 51 °F  
Max Temperature 80 °F 62 °F 83 °F (1908)
Min Temperature 59 °F 40 °F 15 °F (1902)
Degree Days  
Heating Degree Days 0 14  
Month to date heating degree days 162 299  
Since 1 July heating degree days 2629 3195  
Cooling Degree Days 5 0  
Month to date cooling degree days 12 0  
Year to date cooling degree days 12 0  
Growing Degree Days 20 (Base 50)    
Moisture  
Dew Point 57 °F    
Average Humidity 66    
Maximum Humidity 90    
Minimum Humidity 42    
Precipitation  
Precipitation 0.21 in 0.14 in 2.45 in (2002)
Month to date precipitation 4.24 2.47  
Year to date precipitation 13.97 11.05  
Snow  
Snow 0.00 in 0.10 in - ()
Month to date snowfall T 0.6  
Since 1 July snowfall 0.1 5.7  
Snow Depth 0.00 in    
Sea Level Pressure  
Sea Level Pressure 30.19 in    
Wind  
Wind Speed 4 mph (NE)    
Max Wind Speed 17 mph    
Max Gust Speed 21 mph    
Visibility 10 miles    
Events Rain , Thunderstorm    
T = Trace of Precipitation, MM = Missing Value Source: NWS Daily Summary

Daily Weather History Graph

Daily Weather History Graph

Search for Another Location

Airport or City:

Trip Planner

Search our weather history database for the weather conditions in past years. The results will help you decide how hot, cold, wet, or windy it might be!

Date:

Astronomy

Mar. 18, 2012 Rise Set
Actual Time 7:41 AM EDT 7:46 PM EDT
Civil Twilight 7:16 AM EDT 8:11 PM EDT
Nautical Twilight 6:46 AM EDT 8:41 PM EDT
Astronomical Twilight 6:16 AM EDT 9:11 PM EDT
Moon 5:13 AM EDT (3/18) 4:18 PM EDT (3/18)
Length of Visible Light 12h 55m
Length of Day
12h 04m
Waning Crescent, 15% of the Moon is Illuminated
Mar 18
Waning Crescent
Mar 22
New
Mar 30
First Quarter
Apr 6
Full
Apr 13
Last Quarter

Hourly Weather History & Observations

Time (EDT) Temp. Dew Point Humidity Pressure Visibility Wind Dir Wind Speed Gust Speed Precip Events Conditions
12:10 AM 64.4 °F 59.0 °F 83% 30.18 in 10.0 mi NE 3.5 mph - N/A Thunderstorm Thunderstorm
12:31 AM 64.4 °F 57.2 °F 77% 30.19 in 10.0 mi WNW 4.6 mph - 0.00 in Rain Light Rain
12:45 AM 64.4 °F 59.0 °F 83% 30.18 in 10.0 mi East 3.5 mph - 0.00 in Thunderstorm Thunderstorm
12:53 AM 64.0 °F 59.0 °F 84% 30.17 in 10.0 mi East 3.5 mph - 0.00 in Thunderstorm Thunderstorm
1:47 AM 64.4 °F 59.0 °F 83% 30.18 in 10.0 mi NNW 4.6 mph - N/A   Mostly Cloudy
1:53 AM 64.0 °F 59.0 °F 84% 30.17 in 10.0 mi NNW 5.8 mph - N/A   Mostly Cloudy
2:04 AM 64.4 °F 59.0 °F 83% 30.18 in 10.0 mi NE 5.8 mph - N/A Thunderstorm Thunderstorm
2:31 AM 62.6 °F 59.0 °F 88% 30.18 in 10.0 mi ENE 5.8 mph - N/A   Mostly Cloudy
2:53 AM 62.1 °F 59.0 °F 90% 30.16 in 10.0 mi NE 5.8 mph - N/A   Mostly Cloudy
3:06 AM 64.4 °F 59.0 °F 83% 30.21 in 10.0 mi NNW 8.1 mph - N/A Thunderstorm Thunderstorm
3:53 AM 62.1 °F 59.0 °F 90% 30.20 in 10.0 mi North 4.6 mph - 0.02 in Rain , Thunderstorm Light Thunderstorms and Rain
4:45 AM 60.8 °F 59.0 °F 94% 30.23 in 10.0 mi Calm Calm - 0.18 in Rain Light Rain
4:47 AM 60.8 °F 59.0 °F 94% 30.23 in 10.0 mi Calm Calm - 0.18 in Rain Light Rain
4:53 AM 61.0 °F 59.0 °F 93% 30.21 in 10.0 mi Calm Calm - 0.18 in Rain Light Rain
5:23 AM 60.8 °F 59.0 °F 94% 30.23 in 10.0 mi East 6.9 mph - 0.01 in   Overcast
5:53 AM 60.1 °F 59.0 °F 96% 30.21 in 10.0 mi East 8.1 mph - 0.01 in   Overcast
6:53 AM 60.1 °F 57.9 °F 93% 30.21 in 10.0 mi East 8.1 mph - 0.00 in   Mostly Cloudy
7:53 AM 60.1 °F 57.9 °F 93% 30.23 in 10.0 mi East 5.8 mph - N/A   Mostly Cloudy
8:53 AM 61.0 °F 57.9 °F 90% 30.25 in 10.0 mi ENE 4.6 mph - N/A   Mostly Cloudy
9:53 AM 63.0 °F 59.0 °F 87% 30.26 in 10.0 mi NE 5.8 mph - N/A   Mostly Cloudy
10:53 AM 66.9 °F 60.1 °F 79% 30.27 in 10.0 mi ENE 5.8 mph - N/A   Partly Cloudy
11:53 AM 70.0 °F 60.1 °F 71% 30.26 in 10.0 mi NE 4.6 mph - N/A   Partly Cloudy
12:53 PM 72.0 °F 57.9 °F 61% 30.25 in 10.0 mi SW 4.6 mph - N/A   Partly Cloudy
1:53 PM 73.9 °F 57.9 °F 57% 30.22 in 10.0 mi Variable 3.5 mph - N/A   Partly Cloudy
2:53 PM 77.0 °F 57.0 °F 50% 30.19 in 10.0 mi Calm Calm - N/A   Partly Cloudy
3:53 PM 78.1 °F 57.9 °F 50% 30.16 in 10.0 mi Calm Calm - N/A   Partly Cloudy
4:53 PM 78.1 °F 54.0 °F 43% 30.14 in 10.0 mi Calm Calm - N/A   Partly Cloudy
5:53 PM 79.0 °F 54.0 °F 42% 30.12 in 10.0 mi SW 3.5 mph - N/A   Partly Cloudy
6:53 PM 77.0 °F 53.1 °F 43% 30.11 in 10.0 mi WSW 5.8 mph - N/A   Partly Cloudy
7:53 PM 73.0 °F 52.0 °F 48% 30.11 in 10.0 mi SW 4.6 mph - N/A   Partly Cloudy
8:53 PM 71.1 °F 53.1 °F 53% 30.12 in 10.0 mi South 4.6 mph - N/A   Partly Cloudy
9:53 PM 70.0 °F 52.0 °F 53% 30.14 in 10.0 mi Calm Calm - N/A   Partly Cloudy
10:53 PM 68.0 °F 53.1 °F 59% 30.14 in 10.0 mi Calm Calm - N/A   Clear
11:53 PM 66.0 °F 53.1 °F 63% 30.15 in 10.0 mi South 3.5 mph - N/A   Clear